Vancouver, British Columbia

3:08 AM PDT on March 25, 2017 (GMT -0700)
Vancouver International Airport

Weather History for CYVR - April, 2013

Change the Weather History Date:

Tuesday, April 23, 2013

  Actual Average Record
Temperature  
Mean Temperature 49 °F -  
Max Temperature 57 °F 60 °F 66 °F (2005)
Min Temperature 41 °F 45 °F 37 °F (2002)
Degree Days  
Heating Degree Days 16    
Moisture  
Dew Point 37 °F    
Average Humidity 61    
Maximum Humidity 82    
Minimum Humidity 35    
Precipitation  
Precipitation 0.00 in 0.09 in - ()
Sea Level Pressure  
Sea Level Pressure 30.35 in    
Wind  
Wind Speed 6 mph ()    
Max Wind Speed 15 mph    
Max Gust Speed -    
Visibility 18.2 miles    
Events      
Averages and records for this station are not official NWS values.
T = Trace of Precipitation, MM = Missing Value Source: Averaged Metar Reports

Daily Weather History Graph

Daily Weather History Graph

Search for Another Location

Airport or City:

Trip Planner

Search our weather history database for the weather conditions in past years. The results will help you decide how hot, cold, wet, or windy it might be!

Date:

Astronomy

Apr. 23, 2013 Rise Set
Actual Time 6:05 AM PDT 8:17 PM PDT
Civil Twilight 5:30 AM PDT 8:52 PM PDT
Nautical Twilight 4:47 AM PDT 9:35 PM PDT
Astronomical Twilight 3:58 AM PDT 10:25 PM PDT
Moon 6:10 PM PDT (4/23) 4:48 AM PDT (4/23)
Length of Visible Light 15h 22m
Length of Day
14h 12m
Waxing Gibbous, 94% of the Moon is Illuminated
Apr 23
Waxing Gibbous
Apr 25
Full
May 2
Last Quarter
May 9
New
May 17
First Quarter

Hourly Weather History & Observations

Time (PDT) Temp. Windchill Dew Point Humidity Pressure Visibility Wind Dir Wind Speed Gust Speed Precip Events Conditions
12:00 AM 46.4 °F 44.3 °F 33.8 °F 62% 30.43 in 30.0 mi ESE 4.6 mph - N/A   Partly Cloudy
1:00 AM 44.6 °F 40.2 °F 33.8 °F 66% 30.43 in 30.0 mi East 8.1 mph - N/A   Scattered Clouds
2:00 AM 42.8 °F 41.1 °F 33.8 °F 70% 30.42 in 30.0 mi East 3.5 mph - N/A   Mostly Cloudy
3:00 AM 44.6 °F 43.1 °F 32.0 °F 61% 30.40 in 30.0 mi ESE 3.5 mph - N/A   Mostly Cloudy
4:00 AM 42.8 °F 40.1 °F 32.0 °F 66% 30.38 in 30.0 mi ESE 4.6 mph - N/A   Mostly Cloudy
5:00 AM 42 °F - 33 °F 60% 30.38 in 28 mi East 5.8 mph - -   Scattered Clouds
5:00 AM 41.0 °F 36.4 °F 33.8 °F 76% 30.38 in 30.0 mi East 6.9 mph - N/A   Mostly Cloudy
6:00 AM 42.8 °F 39.3 °F 33.8 °F 70% 30.37 in 30.0 mi East 5.8 mph - N/A   Mostly Cloudy
7:00 AM 42.8 °F 38.6 °F 35.6 °F 76% 30.34 in 20.0 mi East 6.9 mph - N/A   Mostly Cloudy
8:00 AM 46.4 °F 42.9 °F 35.6 °F 66% 30.35 in 20.0 mi East 6.9 mph - N/A   Mostly Cloudy
9:00 AM 48.2 °F - 37.4 °F 66% 30.34 in 20.0 mi ESE 6.9 mph - N/A   Mostly Cloudy
10:00 AM 51.8 °F - 39.2 °F 62% 30.34 in 20.0 mi East 3.5 mph - N/A   Mostly Cloudy
11:00 AM 53 °F - 38 °F 44% 30.35 in 19 mi East 4.6 mph - -   Scattered Clouds
11:00 AM 53.6 °F - 37.4 °F 54% 30.35 in 20.0 mi East 4.6 mph - N/A   Scattered Clouds
12:00 PM 55.4 °F - 37.4 °F 51% 30.35 in 30.0 mi West 5.8 mph - N/A   Partly Cloudy
1:00 PM 53.6 °F - 41.0 °F 62% 30.35 in 30.0 mi West 10.4 mph - N/A   Partly Cloudy
2:00 PM 53.6 °F - 41.0 °F 62% 30.34 in 30.0 mi WNW 12.7 mph - N/A   Partly Cloudy
3:00 PM 55.4 °F - 42.8 °F 63% 30.34 in 30.0 mi WNW 12.7 mph - N/A   Partly Cloudy
4:00 PM 55.4 °F - 41.0 °F 58% 30.32 in 30.0 mi NW 15.0 mph - N/A   Partly Cloudy
5:00 PM 57 °F - 37 °F 35% 30.31 in 28 mi NW 10.4 mph - -   Scattered Clouds
5:00 PM 57.2 °F - 37.4 °F 48% 30.31 in 30.0 mi NW 10.4 mph - N/A   Partly Cloudy
6:00 PM 57.2 °F - 39.2 °F 51% 30.30 in 30.0 mi NW 10.4 mph - N/A   Partly Cloudy
7:00 PM 55.4 °F - 41.0 °F 58% 30.29 in 30.0 mi NW 8.1 mph - N/A   Clear
8:00 PM 53.6 °F - 41.0 °F 62% 30.29 in 30.0 mi NW 10.4 mph - N/A   Clear
9:00 PM 53.6 °F - 39.2 °F 58% 30.30 in 30.0 mi NW 9.2 mph - N/A   Clear
10:00 PM 50.0 °F - 44.6 °F 82% 30.31 in 15.0 mi NNW 4.6 mph - N/A   Clear
11:00 PM 50 °F - 37 °F 51% 30.32 in 15 mi East 3.5 mph - -  
11:00 PM 50.0 °F - 37.4 °F 62% 30.32 in 15.0 mi East 4.6 mph - N/A   Clear